Weather History for Whitefield, NH

Change the Weather History Date:

Wednesday, August 28, 2013

  Actual Average Record
Temperature  
Mean Temperature 70 °F -  
Max Temperature 87 °F 73 °F 87 °F (2013)
Min Temperature 55 °F 44 °F 37 °F (2002)
Cooling Degree Days 4    
Growing Degree Days 20 (Base 50)    
Moisture  
Dew Point 58 °F    
Average Humidity 85    
Maximum Humidity 94    
Minimum Humidity 46    
Precipitation  
Precipitation 0.11 in - - ()
Sea Level Pressure  
Sea Level Pressure 29.93 in    
Wind  
Wind Speed 1 mph (WNW)    
Max Wind Speed 10 mph    
Max Gust Speed -    
Visibility 5 miles    
Events Fog , Rain , Thunderstorm    
Averages and records for this station are not official NWS values.
T = Trace of Precipitation, MM = Missing Value Source: NWS Daily Summary

Daily Weather History Graph

Daily Weather History Graph

Search for Another Location

Airport:

Trip Planner

Search our weather history database for the weather conditions in past years. The results will help you decide how hot, cold, wet, or windy it might be!

Date:

Astronomy

Aug. 28, 2013 Rise Set
Actual Time 6:04 AM EDT 7:29 PM EDT
Civil Twilight 5:34 AM EDT 7:59 PM EDT
Nautical Twilight 4:57 AM EDT 8:35 PM EDT
Astronomical Twilight 4:18 AM EDT 9:14 PM EDT
Moon 11:48 PM EDT (8/28) 2:10 PM EDT (8/28)
Length of Visible Light 14h 25m
Length of Day
13h 24m
Waning Gibbous, 47% of the Moon is Illuminated
Aug 28
Waning Gibbous
Sep 5
New
Sep 12
First Quarter
Sep 19
Full
Sep 26
Last Quarter

Hourly Weather History & Observations

Time (EDT) Temp. Heat Index Dew Point Humidity Pressure Visibility Wind Dir Wind Speed Gust Speed Precip Events Conditions
12:52 AM 60.1 °F - 57.0 °F 90% 29.93 in 6.0 mi Calm Calm - N/A   Clear
1:21 AM 57.2 °F - 55.4 °F 94% 29.93 in 2.0 mi Calm Calm - N/A   Partly Cloudy
1:27 AM 57.2 °F - 55.4 °F 94% 29.93 in 1.0 mi Calm Calm - N/A   Mist
1:38 AM 57.2 °F - 55.4 °F 94% 29.93 in 1.5 mi Calm Calm - N/A   Mostly Cloudy
1:48 AM 59.0 °F - 55.4 °F 88% 29.92 in 0.8 mi Calm Calm - N/A   Mist
1:52 AM 57.9 °F - 55.9 °F 93% 29.91 in 0.8 mi Calm Calm - N/A   Mist
1:57 AM 57.2 °F - 55.4 °F 94% 29.92 in 1.2 mi Calm Calm - N/A   Overcast
1:59 AM 57.2 °F - 55.4 °F 94% 29.92 in 4.0 mi Calm Calm - N/A   Overcast
2:17 AM 57.2 °F - 55.4 °F 94% 29.92 in 1.0 mi Calm Calm - N/A   Mist
2:24 AM 57.2 °F - 55.4 °F 94% 29.92 in 0.2 mi Calm Calm - N/A Fog Fog
2:45 AM 57.2 °F - 55.4 °F 94% 29.92 in 1.2 mi Calm Calm - N/A   Overcast
2:47 AM 57.2 °F - 55.4 °F 94% 29.92 in 0.8 mi SE 3.5 mph - N/A   Mist
2:52 AM 57.0 °F - 54.0 °F 89% 29.91 in 0.2 mi South 3.5 mph - N/A Fog Fog
3:26 AM 57.2 °F - 55.4 °F 94% 29.92 in 1.0 mi Calm Calm - N/A   Overcast
3:33 AM 57.2 °F - 55.4 °F 94% 29.92 in 2.0 mi Calm Calm - N/A   Overcast
3:41 AM 57.2 °F - 55.4 °F 94% 29.92 in 4.0 mi Calm Calm - N/A   Overcast
3:49 AM 57.2 °F - 55.4 °F 94% 29.92 in 1.8 mi Calm Calm - N/A   Overcast
3:52 AM 57.0 °F - 55.0 °F 93% 29.91 in 2.0 mi Calm Calm - N/A   Overcast
4:01 AM 57.2 °F - 55.4 °F 94% 29.92 in 1.0 mi Calm Calm - N/A   Overcast
4:08 AM 57.2 °F - 55.4 °F 94% 29.92 in 0.2 mi Calm Calm - N/A Fog Fog
4:52 AM 55.9 °F - 54.0 °F 93% 29.91 in 0.2 mi Calm Calm - N/A Fog Fog
5:52 AM 55.9 °F - 54.0 °F 93% 29.93 in 0.5 mi Calm Calm - 0.01 in Fog Fog
6:06 AM 57.2 °F - 53.6 °F 88% 29.94 in 1.2 mi Calm Calm - N/A   Overcast
6:15 AM 55.4 °F - 53.6 °F 94% 29.94 in 0.8 mi Calm Calm - N/A   Overcast
6:52 AM 57.0 °F - 55.0 °F 93% 29.94 in 0.2 mi Calm Calm - N/A Fog Fog
7:52 AM 60.1 °F - 57.9 °F 93% 29.94 in 0.8 mi Calm Calm - N/A   Mostly Cloudy
7:54 AM 60.8 °F - 59.0 °F 94% 29.94 in 1.2 mi Calm Calm - N/A   Mostly Cloudy
7:57 AM 60.8 °F - 59.0 °F 94% 29.94 in 3.0 mi Calm Calm - N/A   Mostly Cloudy
8:09 AM 60.8 °F - 59.0 °F 94% 29.94 in 5.0 mi Calm Calm - N/A   Scattered Clouds
8:52 AM 64.9 °F - 61.0 °F 87% 29.94 in 9.0 mi Calm Calm - N/A   Clear
9:52 AM 71.1 °F - 63.0 °F 75% 29.94 in 10.0 mi Calm Calm - N/A   Overcast
10:52 AM 75.0 °F - 64.0 °F 69% 29.95 in 10.0 mi Calm Calm - N/A   Mostly Cloudy
11:52 AM 80.1 °F 82.1 °F 66.0 °F 62% 29.92 in 10.0 mi Calm Calm - N/A   Clear
12:52 PM 82.0 °F 83.1 °F 63.0 °F 52% 29.90 in 10.0 mi NNW 3.5 mph - N/A   Clear
1:52 PM 84.0 °F 84.5 °F 62.1 °F 47% 29.90 in 10.0 mi WNW 3.5 mph - N/A   Partly Cloudy
2:52 PM 84.0 °F 84.4 °F 61.0 °F 46% 29.88 in 10.0 mi SW 4.6 mph - N/A   Partly Cloudy
3:52 PM 84.0 °F 84.5 °F 62.1 °F 47% 29.87 in 10.0 mi NE 6.9 mph - N/A   Mostly Cloudy
4:52 PM 75.9 °F - 61.0 °F 60% 29.88 in 10.0 mi Variable 4.6 mph - N/A Thunderstorm Thunderstorm
5:52 PM 73.0 °F - 60.1 °F 64% 29.92 in 10.0 mi Calm Calm - N/A Thunderstorm Thunderstorm
6:52 PM 70.0 °F - 62.1 °F 76% 29.93 in 10.0 mi Calm Calm - N/A Thunderstorm Mostly Cloudy
7:08 PM 69.8 °F - 62.6 °F 78% 29.94 in 10.0 mi WNW 4.6 mph - N/A   Scattered Clouds
7:38 PM 69.8 °F - 62.6 °F 78% 29.96 in 10.0 mi Calm Calm - N/A Thunderstorm Mostly Cloudy
7:52 PM 69.1 °F - 63.0 °F 81% 29.96 in 10.0 mi Calm Calm - N/A   Overcast
8:52 PM 66.9 °F - 64.0 °F 90% 29.98 in 7.0 mi Calm Calm - 0.08 in Rain Light Rain
9:52 PM 68.0 °F - 63.0 °F 84% 29.99 in 10.0 mi ENE 10.4 mph - 0.01 in Rain Light Rain
10:52 PM 66.0 °F - 62.1 °F 87% 29.99 in 10.0 mi Variable 3.5 mph - 0.01 in   Clear
11:52 PM 63.0 °F - 60.1 °F 90% 29.99 in 10.0 mi Calm Calm - N/A   Clear